TimeMST,TemperatureF,Dew PointF,Humidity,Sea Level PressureIn,VisibilityMPH,Wind Direction,Wind SpeedMPH,Gust SpeedMPH,PrecipitationIn,Events,Conditions,WindDirDegrees,DateUTC
12:55 AM,35.1,21.0,57,30.02,10.0,NW,11.5,-,N/A,,Overcast,310,2011-12-07 07:55:00
1:55 AM,34.0,21.9,61,30.05,10.0,WNW,6.9,-,N/A,,Overcast,290,2011-12-07 08:55:00
2:55 AM,34.0,23.0,64,30.07,10.0,NW,8.1,-,N/A,,Mostly Cloudy,310,2011-12-07 09:55:00
3:55 AM,30.0,21.0,69,30.10,10.0,WNW,6.9,-,N/A,,Clear,300,2011-12-07 10:55:00
4:55 AM,27.0,21.0,78,30.12,10.0,West,3.5,-,N/A,,Partly Cloudy,270,2011-12-07 11:55:00
5:55 AM,24.1,19.0,81,30.15,10.0,WNW,8.1,-,N/A,,Clear,300,2011-12-07 12:55:00
6:55 AM,24.1,19.9,84,30.17,10.0,West,8.1,-,N/A,,Overcast,260,2011-12-07 13:55:00
7:55 AM,27.0,21.0,78,30.18,10.0,West,4.6,-,N/A,,Overcast,270,2011-12-07 14:55:00
8:55 AM,32.0,23.0,69,30.20,10.0,West,4.6,-,N/A,,Overcast,280,2011-12-07 15:55:00
9:55 AM,34.0,25.0,70,30.21,10.0,WSW,3.5,-,N/A,,Overcast,250,2011-12-07 16:55:00
10:55 AM,35.1,26.1,70,30.19,9.0,WSW,4.6,-,0.00,,Overcast,250,2011-12-07 17:55:00
11:55 AM,37.0,26.1,65,30.16,10.0,WNW,4.6,-,N/A,,Overcast,290,2011-12-07 18:55:00
12:55 PM,39.9,27.0,60,30.13,10.0,West,5.8,-,N/A,,Overcast,280,2011-12-07 19:55:00
1:55 PM,37.9,27.0,65,30.12,10.0,NNE,4.6,-,N/A,,Mostly Cloudy,20,2011-12-07 20:55:00
2:55 PM,37.9,28.0,68,30.13,10.0,NNE,9.2,-,N/A,,Overcast,20,2011-12-07 21:55:00
3:55 PM,33.1,27.0,78,30.14,10.0,NE,5.8,-,N/A,,Partly Cloudy,40,2011-12-07 22:55:00
4:55 PM,27.0,24.1,89,30.17,10.0,Calm,Calm,-,N/A,,Clear,0,2011-12-07 23:55:00
5:55 PM,23.0,21.0,92,30.20,10.0,Calm,Calm,-,N/A,,Clear,0,2011-12-08 00:55:00
6:55 PM,21.9,19.9,92,30.22,10.0,Calm,Calm,-,N/A,,Scattered Clouds,0,2011-12-08 01:55:00
7:07 PM,24.8,21.2,86,30.14,10.0,NW,6.9,-,N/A,,Mostly Cloudy,320,2011-12-08 02:07:00
7:55 PM,24.1,21.9,91,30.22,10.0,NNW,3.5,-,N/A,,Overcast,330,2011-12-08 02:55:00
8:39 PM,24.8,23.0,93,30.15,10.0,Calm,Calm,-,N/A,,Overcast,0,2011-12-08 03:39:00
8:48 PM,24.8,23.0,93,30.16,10.0,Calm,Calm,-,N/A,,Overcast,0,2011-12-08 03:48:00
8:55 PM,26.1,24.1,92,30.22,10.0,NW,3.5,-,N/A,,Overcast,320,2011-12-08 03:55:00
9:13 PM,26.6,24.8,93,30.16,10.0,Calm,Calm,-,N/A,,Overcast,0,2011-12-08 04:13:00
9:46 PM,24.8,23.0,93,30.16,10.0,Calm,Calm,-,N/A,,Overcast,0,2011-12-08 04:46:00
9:55 PM,26.1,24.1,92,30.22,10.0,Calm,Calm,-,N/A,,Overcast,0,2011-12-08 04:55:00
10:50 PM,24.8,23.0,93,30.16,10.0,Calm,Calm,-,N/A,,Overcast,0,2011-12-08 05:50:00
10:55 PM,25.0,23.0,92,30.23,10.0,Calm,Calm,-,N/A,,Overcast,0,2011-12-08 05:55:00
11:19 PM,26.6,24.8,93,30.17,10.0,North,4.6,-,N/A,,Overcast,10,2011-12-08 06:19:00
11:33 PM,26.6,24.8,93,30.16,10.0,Calm,Calm,-,N/A,,Overcast,0,2011-12-08 06:33:00
11:55 PM,25.0,23.0,92,30.20,10.0,SE,3.5,-,N/A,,Overcast,140,2011-12-08 06:55:00